Location: Piotrkow Trybunalski
(51.4000°N, 19.6830°E)
Time: 04:31:06
(UTC+02:00)

A-11 Canister half - Pass Details

Date: 28 January 2023
Orbit: 1526 x 1682 km, 47.3° (Epoch: 24 March)

Event Time Altitude Azimuth Distance (km) Brightness Sun altitude
Rises 12:10:49 0° 282° (WNW) 4,725 11.5 20.3°
Reaches altitude 10° 12:13:56 10° 278° (W) 3,757 11.1 20.3°
Maximum altitude 12:23:01 52° 206° (SSW) 1,923 10.6 20.1°
Drops below altitude 10° 12:32:24 10° 134° (SE) 3,867 11.7 19.9°
Sets 12:35:40 0° 129° (SE) 4,872 12.0 19.8°
